FW9243 Weather Reports


time (UTC)temp
F
wind
direction
speed
knots
gust
knots
rain 1hr
in
rain 24hr
in
rain mn
in
humidity
%
barometer
mb
20260902220804 64 225 0.0 0.9 0.00 0.00 0.00 90 1023.1
20260902220745 64 178 0.0 0.9 0.00 0.00 0.00 90 1023.7
20260902220304 64 172 0.0 0.9 0.00 0.00 0.00 90 1023.1
20260902220247 64 45 0.0 0.9 0.00 0.00 0.00 90 1023.6
20260902220056 64 0 0.0 0.9 0.00 0.00 0.00 100 1024.3
20260902215804 64 79 0.0 0.9 0.00 0.00 0.00 90 1023.1
20260902215746 64 1 0.0 0.9 0.00 0.00 0.00 90 1023.6
20260902215306 64 256 0.0 0.9 0.00 0.00 0.00 90 1023.1
20260902215246 64 1 0.0 0.9 0.00 0.00 0.00 90 1023.6
20260902214804 64 252 0.0 0.9 0.00 0.00 0.00 90 1023.1
20260902214745 64 45 0.0 0.9 0.00 0.00 0.00 90 1023.6
20260902214543 64 0 0.0 0.0 0.00 0.00 0.00 100 1024.3
20260902214304 64 179 0.0 0.9 0.00 0.00 0.00 90 1023.1
20260902214247 64 223 0.0 0.9 0.00 0.00 0.00 90 1023.6
20260902213804 64 166 0.0 0.9 0.00 0.00 0.00 90 1023.1
20260902213744 65 178 0.0 0.9 0.00 0.00 0.00 90 1023.5
20260902213728 65 178 0.0 0.9 0.00 0.00 0.00 89 1023.6
20260902213304 65 173 0.0 0.9 0.00 0.00 0.00 90 1023.1
20260902213042 64 0 0.0 0.9 0.00 0.00 0.00 100 1024.2
20260902212744 65 45 0.0 0.9 0.00 0.00 0.00 89 1023.5
20260902212245 65 178 0.0 0.9 0.00 0.00 0.00 89 1023.6
20260902211804 65 188 0.0 0.9 0.00 0.00 0.00 89 1023.0
20260902211744 65 223 0.0 0.9 0.00 0.00 0.00 89 1023.5
20260902211546 65 0 0.0 0.9 0.00 0.00 0.00 100 1024.1
20260902211246 65 269 0.0 0.9 0.00 0.00 0.00 89 1023.5
20260902210804 65 242 0.0 0.9 0.00 0.00 0.00 89 1022.9
20260902210744 65 223 0.0 0.9 0.00 0.00 0.00 89 1023.5
20260902210304 65 236 0.0 0.9 0.00 0.00 0.00 89 1022.9
20260902210250 65 223 0.0 0.9 0.00 0.00 0.00 89 1023.4
20260902210048 65 0 0.0 0.9 0.00 0.00 0.00 100 1024.0
20260902210011 66 206 0.0 0.9 0.00 0.00 0.00 89 1023.4
20260902205804 66 243 0.0 0.9 0.00 0.00 0.00 89 1022.9
20260902205306 66 205 0.0 0.9 0.00 0.00 0.00 89 1022.9
20260902205245 66 206 0.0 0.9 0.00 0.00 0.00 89 1023.4
20260902204816 66 152 0.0 0.9 0.00 0.00 0.00 89 1023.3
20260902204810 66 296 0.0 0.9 0.00 0.00 0.00 89 1023.3
20260902204804 66 246 0.0 0.9 0.00 0.00 0.00 89 1022.8
20260902204548 55 0 0.0 0.9 0.00 0.00 0.00 100 1023.9
20260902204304 66 179 0.0 0.9 0.00 0.00 0.00 89 1022.7
20260902203743 66 161 0.0 0.9 0.00 0.00 0.00 89 1023.3
20260902203304 66 95 0.0 0.9 0.00 0.00 0.00 88 1022.7
20260902203245 66 178 0.0 0.9 0.00 0.00 0.00 88 1023.3
20260902203048 55 0 0.0 0.9 0.00 0.00 0.00 100 1023.8
20260902202804 66 150 0.0 0.9 0.00 0.00 0.00 88 1022.6
20260902202743 67 178 0.0 0.9 0.00 0.00 0.00 88 1023.2
20260902202306 67 159 0.0 0.9 0.00 0.00 0.00 88 1022.5
20260902202246 67 45 0.0 0.9 0.00 0.00 0.00 87 1023.1
20260902201804 67 178 0.0 0.9 0.00 0.00 0.00 87 1022.5
20260902201743 67 178 0.9 0.9 0.00 0.00 0.00 87 1023.1
20260902201728 67 178 0.0 0.9 0.00 0.00 0.00 87 1023.1
20260902201554 55 178 0.0 0.9 0.00 0.00 0.00 100 1023.6
20260902201304 67 178 0.0 0.9 0.00 0.00 0.00 87 1022.5
20260902200805 67 246 0.0 0.9 0.00 0.00 0.00 86 1022.3
20260902200743 67 45 0.0 0.9 0.00 0.00 0.00 86 1023.0
20260902200304 67 237 0.0 0.9 0.00 0.00 0.00 86 1022.4
20260902200244 67 269 0.0 0.9 0.00 0.00 0.00 86 1023.0
20260902200045 55 0 0.0 0.9 0.00 0.00 0.00 100 1023.5
20260902195804 67 226 0.0 0.9 0.00 0.00 0.00 86 1022.3
20260902195743 67 206 0.0 0.9 0.00 0.00 0.00 86 1023.0
20260902195306 68 220 0.0 1.7 0.00 0.00 0.00 86 1022.2
20260902195245 68 269 0.9 0.9 0.00 0.00 0.00 86 1022.9
20260902194804 68 312 0.0 1.7 0.00 0.00 0.00 86 1022.2
20260902194742 68 269 0.0 0.9 0.00 0.00 0.00 85 1022.7
20260902194541 55 282 0.9 0.9 0.00 0.00 0.00 100 1023.4
20260902194304 68 346 0.0 0.9 0.00 0.00 0.00 85 1022.2
20260902194245 68 45 0.0 1.7 0.00 0.00 0.00 85 1022.7
20260902193805 68 235 0.9 1.7 0.00 0.00 0.00 85 1022.2
20260902193743 68 223 0.9 1.7 0.00 0.00 0.00 84 1022.7
20260902193304 69 165 0.0 0.9 0.00 0.00 0.00 84 1022.1
20260902193243 69 45 0.0 0.9 0.00 0.00 0.00 84 1022.6
20260902193059 55 0 0.0 0.9 0.00 0.00 0.00 100 1023.2
20260902192803 69 229 0.0 0.9 0.00 0.00 0.00 84 1022.1
20260902192741 69 223 0.0 0.9 0.00 0.00 0.00 84 1022.6
20260902192306 69 234 0.9 0.9 0.00 0.00 0.00 84 1022.0
20260902192244 69 206 0.9 0.9 0.00 0.00 0.00 83 1022.6
20260902191804 69 208 0.9 1.7 0.00 0.00 0.00 83 1022.0
20260902191741 69 45 0.0 1.7 0.00 0.00 0.00 83 1022.6
20260902191544 55 205 0.0 0.9 0.00 0.00 0.00 100 1023.2
20260902191244 69 269 0.0 1.7 0.00 0.00 0.00 83 1022.5
20260902190804 70 223 0.0 0.9 0.00 0.00 0.00 83 1022.0
20260902190741 70 197 0.0 1.7 0.00 0.00 0.00 83 1022.5
20260902190305 70 218 0.9 1.7 0.00 0.00 0.00 83 1021.9
20260902190242 70 241 0.9 1.7 0.00 0.00 0.00 83 1022.5
20260902190053 55 0 0.0 1.7 0.00 0.00 0.00 100 1023.0
20260902185804 70 313 0.0 1.7 0.00 0.00 0.00 82 1021.9
20260902185741 70 296 0.0 1.7 0.00 0.00 0.00 82 1022.4
20260902185306 70 231 0.0 1.7 0.00 0.00 0.00 82 1021.9
20260902185243 70 241 0.0 2.6 0.00 0.00 0.00 82 1022.4
20260902184805 71 263 0.9 2.6 0.00 0.00 0.00 82 1021.9
20260902184740 71 213 0.9 2.6 0.00 0.00 0.00 82 1022.5
20260902184548 55 221 0.9 1.7 0.00 0.00 0.00 100 1023.1
20260902184304 71 235 0.9 2.6 0.00 0.00 0.00 82 1022.0
20260902184242 71 234 0.9 2.6 0.00 0.00 0.00 81 1022.5
20260902183741 71 247 0.9 2.6 0.00 0.00 0.00 81 1022.5
20260902183241 71 300 1.7 2.6 0.00 0.00 0.00 81 1022.5
20260902183105 55 291 0.0 2.6 0.00 0.00 0.00 100 1023.1
20260902182805 72 246 0.9 2.6 0.00 0.00 0.00 81 1022.0
20260902182741 72 197 0.9 2.6 0.00 0.00 0.00 81 1022.5
20260902182735 72 1 1.7 2.6 0.00 0.00 0.00 80 1022.6
20260902182306 72 329 0.9 2.6 0.00 0.00 0.00 80 1022.0
20260902181804 72 299 0.9 2.6 0.00 0.00 0.00 79 1022.1
20260902181740 72 296 0.9 2.6 0.00 0.00 0.00 79 1022.6
20260902181545 55 317 0.9 1.7 0.00 0.00 0.00 99 1023.2
20260902181304 72 312 1.7 2.6 0.00 0.00 0.00 79 1022.0
20260902181242 72 331 1.7 2.6 0.00 0.00 0.00 79 1022.6
20260902180804 73 287 0.9 2.6 0.00 0.00 0.00 78 1022.1
20260902180740 73 231 1.7 3.5 0.00 0.00 0.00 78 1022.6
20260902180508 73 296 1.7 4.3 0.00 0.00 0.00 78 1022.7
20260902180304 73 276 1.7 2.6 0.00 0.00 0.00 78 1022.2
20260902180042 55 265 0.9 3.5 0.00 0.00 0.00 97 1023.3
20260902175954 73 206 0.9 3.5 0.00 0.00 0.00 77 1022.7
20260902175937 73 331 1.7 4.3 0.00 0.00 0.00 77 1022.7
20260902174804 74 268 1.7 2.6 0.00 0.00 0.00 77 1022.2
20260902174740 74 257 1.7 3.5 0.00 0.00 0.00 77 1022.7
20260902174629 55 265 0.9 2.6 0.00 0.00 0.00 96 1023.4
20260902174243 74 303 2.6 3.5 0.00 0.00 0.00 77 1022.7
20260902173804 74 271 1.7 2.6 0.00 0.00 0.00 76 1022.2
20260902173739 74 296 1.7 3.5 0.00 0.00 0.00 76 1022.9
20260902173304 74 333 0.9 4.3 0.00 0.00 0.00 76 1022.2
20260902173240 74 306 1.7 5.2 0.00 0.00 0.00 75 1022.9
20260902173041 55 337 2.6 3.5 0.00 0.00 0.00 95 1023.4
20260902172805 74 321 1.7 6.1 0.00 0.00 0.00 75 1022.2
20260902172740 74 296 1.7 6.1 0.00 0.00 0.00 75 1022.9
20260902172500 75 310 2.6 6.1 0.00 0.00 0.00 75 1022.7
20260902172308 75 321 2.6 7.0 0.00 0.00 0.00 75 1022.2
20260902171804 75 324 1.7 6.1 0.00 0.00 0.00 75 1022.2
20260902171739 75 23 1.7 5.2 0.00 0.00 0.00 75 1022.9
20260902171556 55 265 0.9 3.5 0.00 0.00 0.00 94 1023.4
20260902171240 75 269 1.7 5.2 0.00 0.00 0.00 74 1022.7
20260902170804 75 265 1.7 5.2 0.00 0.00 0.00 75 1022.1
20260902170740 75 279 1.7 5.2 0.00 0.00 0.00 75 1022.7
20260902170239 75 326 2.6 4.3 0.00 0.00 0.00 74 1022.6
20260902170050 55 232 1.7 3.5 0.00 0.00 0.00 94 1023.2
20260902170004 75 259 2.6 5.2 0.00 0.00 0.00 74 1022.6
20260902165804 75 274 1.7 6.1 0.00 0.00 0.00 74 1022.0
20260902165308 76 299 1.7 6.1 0.00 0.00 0.00 74 1022.0
20260902165251 76 299 2.6 5.2 0.00 0.00 0.00 75 1022.6
20260902164737 76 210 1.7 3.5 0.00 0.00 0.00 75 1022.6
20260902164544 55 291 1.7 2.6 0.00 0.00 0.00 94 1023.2
20260902164506 75 258 2.6 3.5 0.00 0.00 0.00 75 1022.6
20260902163804 75 310 2.6 7.0 0.00 0.00 0.00 75 1021.9
20260902163738 75 334 1.7 3.5 0.00 0.00 0.00 75 1022.6
20260902163319 75 348 1.7 5.2 0.00 0.00 0.00 76 1022.6
20260902163059 55 298 0.9 7.0 0.00 0.00 0.00 95 1023.1
20260902162804 74 278 1.7 7.0 0.00 0.00 0.00 76 1022.0
20260902162737 74 254 2.6 5.2 0.00 0.00 0.00 76 1022.5
20260902162311 74 213 2.6 6.1 0.00 0.00 0.00 75 1022.6
20260902162307 74 314 2.6 6.1 0.00 0.00 0.00 75 1022.1
20260902161804 74 257 2.6 7.0 0.00 0.00 0.00 75 1022.1
20260902161738 74 314 1.7 6.1 0.00 0.00 0.00 75 1022.6
20260902161551 55 309 2.6 4.3 0.00 0.00 0.00 95 1023.3
20260902161304 74 296 2.6 6.1 0.00 0.00 0.00 75 1022.1
20260902161301 74 334 2.6 4.3 0.00 0.00 0.00 75 1022.7
20260902160804 75 316 2.6 6.1 0.00 0.00 0.00 75 1022.2
20260902160737 75 28 2.6 7.8 0.00 0.00 0.00 75 1022.7
20260902160304 75 265 2.6 8.7 0.00 0.00 0.00 75 1022.2
20260902160244 75 251 3.5 7.8 0.00 0.00 0.00 75 1022.9
20260902160045 55 239 3.5 4.3 0.00 0.00 0.00 94 1023.4
20260902155804 75 319 1.7 6.1 0.00 0.00 0.00 74 1022.2
20260902155737 75 337 2.6 7.8 0.00 0.00 0.00 74 1022.7
20260902155306 75 307 1.7 7.8 0.00 0.00 0.00 75 1022.2
20260902155239 75 27 2.6 7.8 0.00 0.00 0.00 75 1022.9
20260902154805 75 292 1.7 4.3 0.00 0.00 0.00 76 1022.2
20260902154739 75 241 1.7 5.2 0.00 0.00 0.00 76 1022.7
20260902154542 55 265 1.7 3.5 0.00 0.00 0.00 96 1023.4
20260902154304 75 306 2.6 6.1 0.00 0.00 0.00 76 1022.2
20260902154238 75 309 3.5 5.2 0.00 0.00 0.00 76 1022.9
20260902153804 75 316 2.6 5.2 0.00 0.00 0.00 76 1022.3
20260902153736 74 269 2.6 7.8 0.00 0.00 0.00 76 1023.0
20260902153507 74 1 2.6 7.8 0.00 0.00 0.00 77 1023.0
20260902153439 74 197 3.5 7.8 0.00 0.00 0.00 76 1023.0
20260902153051 55 296 3.5 7.0 0.00 0.00 0.00 96 1023.5
20260902152307 74 295 2.6 7.8 0.00 0.00 0.00 77 1022.3
20260902152238 74 312 3.5 7.8 0.00 0.00 0.00 77 1023.0
20260902151804 74 297 2.6 7.0 0.00 0.00 0.00 76 1022.3
20260902151736 74 310 3.5 6.1 0.00 0.00 0.00 76 1023.0
20260902151549 55 317 3.5 5.2 0.00 0.00 0.00 95 1023.5
20260902151457 74 314 3.5 7.8 0.00 0.00 0.00 75 1023.0
20260902151305 74 292 2.6 8.7 0.00 0.00 0.00 76 1022.4
20260902150804 75 292 2.6 8.7 0.00 0.00 0.00 75 1022.4
20260902150736 75 314 3.5 7.8 0.00 0.00 0.00 75 1023.0
20260902150508 75 290 2.6 5.2 0.00 0.00 0.00 76 1023.0
20260902150048 55 306 3.5 7.0 0.00 0.00 0.00 95 1023.6
20260902145804 75 289 2.6 7.0 0.00 0.00 0.00 76 1022.4
20260902145735 75 300 3.5 6.1 0.00 0.00 0.00 76 1023.0
20260902145306 75 312 2.6 7.0 0.00 0.00 0.00 76 1022.4
20260902145238 75 343 1.7 6.1 0.00 0.00 0.00 76 1023.0
20260902144804 75 321 2.6 7.8 0.00 0.00 0.00 75 1022.4
20260902144737 75 320 2.6 8.7 0.00 0.00 0.00 74 1023.0
20260902144542 55 316 2.6 5.2 0.00 0.00 0.00 94 1023.6
20260902144305 75 301 3.5 8.7 0.00 0.00 0.00 74 1022.4
20260902144240 75 293 4.3 8.7 0.00 0.00 0.00 74 1023.1
20260902143804 75 324 2.6 7.0 0.00 0.00 0.00 74 1022.5
20260902143735 76 354 3.5 7.8 0.00 0.00 0.00 74 1023.1
20260902143304 76 318 2.6 7.8 0.00 0.00 0.00 74 1022.6
20260902143237 76 45 4.3 7.8 0.00 0.00 0.00 74 1023.1
20260902143051 55 280 2.6 5.2 0.00 0.00 0.00 94 1023.7
20260902142804 76 299 2.6 7.0 0.00 0.00 0.00 75 1022.6
20260902142735 76 343 3.5 6.1 0.00 0.00 0.00 75 1023.2
20260902142459 76 313 3.5 6.1 0.00 0.00 0.00 74 1023.2
20260902141804 76 307 2.6 7.0 0.00 0.00 0.00 75 1022.6
20260902141736 76 279 2.6 6.1 0.00 0.00 0.00 75 1023.2
20260902141542 55 309 1.7 3.5 0.00 0.00 0.00 94 1023.9
20260902141303 76 322 2.6 7.0 0.00 0.00 0.00 74 1022.7
20260902141244 76 347 2.6 5.2 0.00 0.00 0.00 74 1023.2
20260902140735 75 296 1.7 6.1 0.00 0.00 0.00 74 1023.2
20260902140515 75 285 2.6 7.8 0.00 0.00 0.00 74 1023.2
20260902140304 75 260 2.6 7.0 0.00 0.00 0.00 74 1022.7
20260902140047 55 309 1.7 3.5 0.00 0.00 0.00 93 1023.9
20260902135804 75 300 2.6 8.7 0.00 0.00 0.00 74 1022.7
20260902135737 75 314 1.7 7.8 0.00 0.00 0.00 74 1023.3
20260902135236 75 343 2.6 7.8 0.00 0.00 0.00 74 1023.3
20260902134804 75 297 2.6 7.8 0.00 0.00 0.00 74 1022.7
20260902134734 75 221 3.5 7.8 0.00 0.00 0.00 74 1023.4
20260902134551 55 340 2.6 4.3 0.00 0.00 0.00 73 1023.9
20260902134304 75 325 2.6 7.0 0.00 0.00 0.00 74 1022.7
20260902134236 75 336 1.7 6.1 0.00 0.00 0.00 74 1023.3
20260902133804 75 318 2.6 8.7 0.00 0.00 0.00 74 1022.8
20260902133734 75 296 3.5 8.7 0.00 0.00 0.00 73 1023.3
20260902133304 75 286 4.3 8.7 0.00 0.00 0.00 73 1022.7
20260902133236 75 331 4.3 8.7 0.00 0.00 0.00 73 1023.3
20260902133041 55 347 1.7 6.1 0.00 0.00 0.00 92 1023.9
20260902132804 76 289 2.6 10.4 0.00 0.00 0.00 73 1022.7
20260902132734 76 214 2.6 7.8 0.00 0.00 0.00 72 1023.2
20260902132306 76 283 2.6 7.0 0.00 0.00 0.00 72 1022.6
20260902132236 76 250 2.6 6.1 0.00 0.00 0.00 73 1023.2
20260902131805 76 4 2.6 4.3 0.00 0.00 0.00 73 1022.6
20260902131735 76 314 2.6 4.3 0.00 0.00 0.00 73 1023.2
20260902131553 55 294 0.9 4.3 0.00 0.00 0.00 93 1023.8
20260902131237 75 347 1.7 6.1 0.00 0.00 0.00 72 1023.2
20260902130958 75 314 3.5 7.8 0.00 0.00 0.00 71 1023.2
20260902130804 75 310 3.5 7.0 0.00 0.00 0.00 71 1022.6
20260902130512 75 298 2.6 7.8 0.00 0.00 0.00 71 1023.1
20260902130304 75 313 2.6 10.4 0.00 0.00 0.00 71 1022.5
20260902130046 55 265 2.6 6.1 0.00 0.00 0.00 91 1023.9
20260902130002 76 337 2.6 6.1 0.00 0.00 0.00 70 1023.2
20260902125804 76 306 2.6 7.8 0.00 0.00 0.00 70 1022.6
20260902125305 76 302 2.6 7.0 0.00 0.00 0.00 69 1022.6
20260902125236 76 293 3.5 6.1 0.00 0.00 0.00 69 1023.2
20260902124803 76 289 1.7 7.0 0.00 0.00 0.00 70 1022.5
20260902124733 76 279 2.6 7.8 0.00 0.00 0.00 70 1023.3
20260902124543 55 291 4.3 6.1 0.00 0.00 0.00 100 1023.8
20260902124304 76 326 2.6 7.8 0.00 0.00 0.00 69 1022.6
20260902124235 76 344 2.6 7.8 0.00 0.00 0.00 69 1023.2
20260902123803 76 310 2.6 6.1 0.00 0.00 0.00 68 1022.6
20260902123733 76 292 2.6 6.1 0.00 0.00 0.00 69 1023.3
20260902123303 76 334 2.6 7.0 0.00 0.00 0.00 69 1022.6
20260902123235 76 1 2.6 6.1 0.00 0.00 0.00 69 1023.3
20260902123055 55 316 2.6 3.5 0.00 0.00 0.00 100 1023.9
20260902122803 76 326 1.7 6.1 0.00 0.00 0.00 68 1022.7
20260902122733 76 8 1.7 6.1 0.00 0.00 0.00 68 1023.4
20260902122305 75 312 1.7 7.0 0.00 0.00 0.00 69 1022.7
20260902122237 75 329 1.7 6.1 0.00 0.00 0.00 69 1023.3
20260902121803 75 272 1.7 4.3 0.00 0.00 0.00 68 1022.7
20260902121732 75 178 1.7 3.5 0.00 0.00 0.00 69 1023.4
20260902121548 55 280 1.7 5.2 0.00 0.00 0.00 100 1023.9
20260902121457 75 299 1.7 4.3 0.00 0.00 0.00 68 1023.4
20260902121303 75 257 1.7 2.6 0.00 0.00 0.00 68 1022.7
20260902120734 75 326 2.6 4.3 0.00 0.00 0.00 68 1023.4
20260902120721 75 296 1.7 4.3 0.00 0.00 0.00 69 1023.4
20260902120303 75 273 1.7 2.6 0.00 0.00 0.00 69 1022.7
20260902120046 55 0 1.7 2.6 0.00 0.00 0.00 100 1024.0
20260902115803 74 335 1.7 4.3 0.00 0.00 0.00 69 1022.8
20260902115732 74 317 1.7 4.3 0.00 0.00 0.00 69 1023.4
20260902115457 74 241 1.7 4.3 0.00 0.00 0.00 69 1023.4
20260902115306 74 205 1.7 5.2 0.00 0.00 0.00 69 1022.8
20260902114732 74 324 0.9 3.5 0.00 0.00 0.00 69 1023.5
20260902114545 55 317 0.9 3.5 0.00 0.00 0.00 100 1024.1
20260902114303 74 331 1.7 2.6 0.00 0.00 0.00 70 1022.9
20260902114234 74 279 1.7 4.3 0.00 0.00 0.00 70 1023.6
20260902113803 74 308 1.7 2.6 0.00 0.00 0.00 70 1023.0
20260902113732 74 341 1.7 4.3 0.00 0.00 0.00 70 1023.6
20260902113304 73 284 0.9 4.3 0.00 0.00 0.00 71 1023.0
20260902113235 73 314 1.7 3.5 0.00 0.00 0.00 71 1023.7
20260902113040 55 190 0.9 1.7 0.00 0.00 0.00 100 1024.2
20260902112954 73 250 0.9 4.3 0.00 0.00 0.00 72 1023.7
20260902112803 73 254 0.9 4.3 0.00 0.00 0.00 72 1023.0
20260902112233 72 296 1.7 4.3 0.00 0.00 0.00 73 1023.7
20260902111803 72 337 1.7 2.6 0.00 0.00 0.00 73 1023.0
20260902111731 72 338 1.7 3.5 0.00 0.00 0.00 73 1023.7
20260902111547 55 292 0.9 2.6 0.00 0.00 0.00 100 1024.4
20260902111232 72 269 1.7 3.5 0.00 0.00 0.00 73 1023.8
20260902111005 72 241 1.7 2.6 0.00 0.00 0.00 74 1023.8
20260902110805 72 287 1.7 2.6 0.00 0.00 0.00 74 1023.2
20260902110303 71 286 0.9 2.6 0.00 0.00 0.00 75 1023.2
20260902110232 71 296 0.9 2.6 0.00 0.00 0.00 76 1023.8
20260902110046 55 319 0.0 2.6 0.00 0.00 0.00 100 1024.4
20260902105803 71 335 1.7 2.6 0.00 0.00 0.00 76 1023.2
20260902105730 71 320 1.7 5.2 0.00 0.00 0.00 76 1023.9
20260902105500 70 254 2.6 5.2 0.00 0.00 0.00 76 1023.8
20260902105306 70 288 1.7 5.2 0.00 0.00 0.00 76 1023.2
20260902104953 70 206 0.9 3.5 0.00 0.00 0.00 78 1023.8
20260902104803 70 210 0.9 2.6 0.00 0.00 0.00 78 1023.1
20260902104608 69 310 0.9 3.5 0.00 0.00 0.00 79 1023.8
20260902104543 55 316 0.9 2.6 0.00 0.00 0.00 100 1024.4
20260902104303 69 299 0.9 2.6 0.00 0.00 0.00 79 1023.1
20260902103803 69 264 0.9 2.6 0.00 0.00 0.00 79 1023.0
20260902103735 69 178 0.9 2.6 0.00 0.00 0.00 79 1023.7
20260902103557 68 269 0.9 2.6 0.00 0.00 0.00 82 1023.8
20260902103303 68 268 0.9 2.6 0.00 0.00 0.00 81 1023.1
20260902103048 55 9 0.9 1.7 0.00 0.00 0.00 100 1024.4
20260902102731 67 223 0.9 3.5 0.00 0.00 0.00 83 1023.8
20260902102307 67 205 0.9 2.6 0.00 0.00 0.00 84 1023.2
20260902102231 67 269 0.9 3.5 0.00 0.00 0.00 84 1023.9
20260902101802 67 326 0.9 2.6 0.00 0.00 0.00 86 1023.2
20260902101732 67 331 0.9 1.7 0.00 0.00 0.00 86 1023.8
20260902101544 55 205 0.9 2.6 0.00 0.00 0.00 100 1024.5
20260902101303 66 278 0.9 2.6 0.00 0.00 0.00 86 1023.2
20260902101233 66 234 0.9 2.6 0.00 0.00 0.00 86 1023.9
20260902100803 66 321 0.9 2.6 0.00 0.00 0.00 87 1023.2
20260902100733 66 45 1.7 2.6 0.00 0.00 0.00 89 1023.9
20260902100727 65 32 1.7 2.6 0.00 0.00 0.00 90 1023.8
20260902100516 65 32 1.7 2.6 0.00 0.00 0.00 90 1023.8
20260902100043 55 265 0.9 1.7 0.00 0.00 0.00 100 1024.4
20260902095731 64 331 0.9 1.7 0.00 0.00 0.00 91 1023.7
20260902095306 64 6 0.9 1.7 0.00 0.00 0.00 93 1023.1
20260902095232 64 1 0.9 1.7 0.00 0.00 0.00 93 1023.8
20260902094803 63 237 0.9 1.7 0.00 0.00 0.00 93 1023.2
20260902094730 63 241 0.9 1.7 0.00 0.00 0.00 93 1023.8
20260902094543 55 248 0.0 1.7 0.00 0.00 0.00 100 1024.4
20260902094303 63 233 0.9 1.7 0.00 0.00 0.00 94 1023.1
20260902094231 63 223 0.9 1.7 0.00 0.00 0.00 94 1023.8
20260902093803 63 322 0.9 1.7 0.00 0.00 0.00 95 1023.1
20260902093730 63 28 0.9 1.7 0.00 0.00 0.00 95 1023.7
20260902093303 62 18 0.9 2.6 0.00 0.00 0.00 95 1023.1
20260902093232 62 331 0.9 1.7 0.00 0.00 0.00 95 1023.7
20260902093043 55 201 0.9 1.7 0.00 0.00 0.00 100 1024.4
20260902092803 62 209 0.9 1.7 0.00 0.00 0.00 95 1023.1
20260902092729 62 269 0.9 1.7 0.00 0.00 0.00 95 1023.8
20260902092305 62 221 0.9 1.7 0.00 0.00 0.00 96 1023.1
20260902092230 62 206 0.9 1.7 0.00 0.00 0.00 96 1023.7
20260902091730 62 231 0.9 1.7 0.00 0.00 0.00 96 1023.8
20260902091542 55 282 0.9 1.7 0.00 0.00 0.00 100 1024.4
20260902091303 61 1 0.9 1.7 0.00 0.00 0.00 96 1023.1
20260902091230 61 1 0.9 1.7 0.00 0.00 0.00 96 1023.7
20260902090803 61 224 0.9 1.7 0.00 0.00 0.00 96 1023.0
20260902090730 61 241 0.9 1.7 0.00 0.00 0.00 96 1023.7
20260902090302 60 34 0.9 1.7 0.00 0.00 0.00 96 1023.0
20260902090229 60 56 0.9 1.7 0.00 0.00 0.00 96 1023.7
20260902090043 55 250 0.9 1.7 0.00 0.00 0.00 100 1024.3
20260902085803 60 211 0.9 1.7 0.00 0.00 0.00 96 1023.1
20260902085729 60 45 0.9 1.7 0.00 0.00 0.00 96 1023.7
20260902085229 59 45 0.9 1.7 0.00 0.00 0.00 96 1023.6
20260902084956 59 269 0.9 1.7 0.00 0.00 0.00 96 1023.8
20260902084803 59 251 0.9 1.7 0.00 0.00 0.00 96 1023.0
20260902084549 55 9 0.0 1.7 0.00 0.00 0.00 100 1024.3
20260902084229 59 314 0.9 1.7 0.00 0.00 0.00 96 1023.8
20260902083803 59 234 0.9 1.7 0.00 0.00 0.00 96 1022.9
20260902083728 59 269 0.9 1.7 0.00 0.00 0.00 96 1023.6
20260902083303 58 230 0.9 1.7 0.00 0.00 0.00 96 1023.0
20260902083229 58 223 0.9 1.7 0.00 0.00 0.00 96 1023.6
20260902083043 55 0 0.0 0.9 0.00 0.00 0.00 100 1024.2
20260902082802 58 214 0.9 0.9 0.00 0.00 0.00 96 1022.9
20260902082728 58 178 0.9 1.7 0.00 0.00 0.00 96 1023.5
20260902082308 58 242 0.9 1.7 0.00 0.00 0.00 96 1022.8
20260902082228 58 231 0.9 1.7 0.00 0.00 0.00 96 1023.4
20260902081803 58 241 0.9 1.7 0.00 0.00 0.00 96 1022.8
20260902081728 58 269 0.9 1.7 0.00 0.00 0.00 96 1023.5
20260902081545 55 273 0.9 0.9 0.00 0.00 0.00 100 1024.0
20260902081303 58 233 0.9 1.7 0.00 0.00 0.00 96 1022.7
20260902081228 58 269 0.9 1.7 0.00 0.00 0.00 96 1023.4
20260902080945 57 314 0.9 1.7 0.00 0.00 0.00 96 1023.2
20260902080803 57 269 0.9 1.7 0.00 0.00 0.00 96 1022.6
20260902080303 57 246 0.0 1.7 0.00 0.00 0.00 96 1022.5
20260902080228 57 206 0.0 1.7 0.00 0.00 0.00 96 1023.2
20260902080042 55 0 0.0 0.9 0.00 0.00 0.00 100 1023.8
20260902075803 57 346 0.9 1.7 0.00 0.00 0.00 96 1022.6
20260902075727 57 1 0.9 1.7 0.00 0.00 0.00 96 1023.2
20260902075306 57 230 0.9 1.7 0.00 0.00 0.00 96 1022.5
20260902075228 57 223 0.9 1.7 0.00 0.00 0.00 96 1023.1
20260902074802 56 214 0.9 1.7 0.00 0.00 0.00 96 1022.4
20260902074726 56 223 0.9 1.7 0.00 0.00 0.00 96 1023.1
20260902074556 55 0 0.0 0.9 0.00 0.00 0.00 100 1023.6
20260902074449 56 269 0.0 0.9 0.00 0.00 0.00 96 1023.0
20260902074303 56 194 0.9 0.9 0.00 0.00 0.00 96 1022.3
20260902073944 56 283 0.0 0.9 0.00 0.00 0.00 96 1023.0
20260902073303 56 211 0.0 1.7 0.00 0.00 0.00 96 1022.2
20260902073227 56 89 0.0 0.9 0.00 0.00 0.00 95 1022.9
20260902073040 55 126 0.0 1.7 0.00 0.00 0.00 100 1023.5
20260902072803 56 168 0.0 0.9 0.00 0.00 0.00 95 1022.3
20260902072726 56 206 0.9 1.7 0.00 0.00 0.00 95 1022.9
20260902072309 56 220 0.0 1.7 0.00 0.00 0.00 95 1022.2
20260902072227 56 223 0.0 1.7 0.00 0.00 0.00 95 1022.9
20260902071803 56 150 0.9 1.7 0.00 0.00 0.00 95 1022.2
20260902071726 56 124 0.9 1.7 0.00 0.00 0.00 95 1022.9
20260902071542 55 0 0.0 0.9 0.00 0.00 0.00 100 1023.5
20260902071453 55 28 0.9 1.7 0.00 0.00 0.00 95 1022.9
20260902071303 55 160 0.9 1.7 0.00 0.00 0.00 95 1022.2
20260902070803 55 164 0.0 0.9 0.00 0.00 0.00 95 1022.2
20260902070726 55 269 0.0 0.9 0.00 0.00 0.00 95 1022.7
20260902070452 55 251 0.0 0.9 0.00 0.00 0.00 95 1022.7
20260902070044 55 0 0.0 0.9 0.00 0.00 0.00 100 1023.4
20260902065947 55 269 0.0 0.9 0.00 0.00 0.00 95 1022.5
20260902065804 55 336 0.0 0.9 0.00 0.00 0.00 95 1022.0
20260902065306 55 120 0.0 0.9 0.00 0.00 0.00 95 1021.9
20260902065227 55 223 0.0 0.9 0.00 0.00 0.00 95 1022.5
20260902064803 55 320 0.0 0.9 0.00 0.00 0.00 95 1021.8
20260902064725 55 331 0.0 0.9 0.00 0.00 0.00 95 1022.4
20260902064550 59 0 0.9 0.9 0.00 0.00 0.00 100 1023.0
20260902064303 55 252 0.0 0.9 0.00 0.00 0.00 95 1021.7
20260902064226 55 16 0.0 0.9 0.00 0.00 0.00 95 1022.2
20260902063803 55 262 0.0 0.9 0.00 0.00 0.00 95 1021.7
20260902063725 55 45 0.0 0.9 0.00 0.00 0.00 95 1022.3
20260902063303 55 234 0.0 0.9 0.00 0.00 0.00 94 1021.8
20260902063226 55 89 0.0 0.9 0.00 0.00 0.00 94 1022.2
20260902063043 59 178 0.0 0.9 0.00 0.00 0.00 100 1023.0
20260902062803 55 231 0.0 0.9 0.00 0.00 0.00 94 1021.8
20260902062725 55 314 0.0 0.9 0.00 0.00 0.00 94 1022.3
20260902062305 55 195 0.0 0.9 0.00 0.00 0.00 94 1021.8
20260902062227 55 178 0.0 0.9 0.00 0.00 0.00 94 1022.3
20260902061948 55 35 0.0 0.9 0.00 0.00 0.00 94 1022.2
20260902061804 55 190 0.0 0.9 0.00 0.00 0.00 94 1021.7
20260902061557 59 0 0.0 0.9 0.00 0.00 0.00 100 1022.9
20260902061302 55 256 0.0 0.9 0.00 0.00 0.00 94 1021.7
20260902061227 55 89 0.0 0.9 0.00 0.00 0.00 94 1022.2
20260902060949 55 45 0.0 0.9 0.00 0.00 0.00 94 1022.2
20260902060803 55 221 0.0 0.9 0.00 0.00 0.00 94 1021.7
20260902060303 55 225 0.0 0.9 0.00 0.00 0.00 94 1021.7
20260902060225 55 241 0.0 0.9 0.00 0.00 0.00 94 1022.1
20260902060055 59 0 0.0 0.9 0.00 0.00 0.00 100 1022.8
20260902055724 55 206 0.0 0.9 0.00 0.00 0.00 94 1022.0
20260902055306 55 32 0.0 0.9 0.00 0.00 0.00 94 1021.6
20260902055227 55 63 0.0 0.9 0.00 0.00 0.00 94 1022.1
20260902054955 55 223 0.0 0.9 0.00 0.00 0.00 94 1022.1
20260902054804 55 250 0.0 0.9 0.00 0.00 0.00 94 1021.6
20260902054600 59 0 0.0 0.9 0.00 0.00 0.00 100 1022.7
20260902054304 55 255 0.0 0.9 0.00 0.00 0.00 94 1021.6
20260902054227 55 314 0.0 0.9 0.00 0.00 0.00 94 1022.1
20260902053723 55 206 0.0 0.9 0.00 0.00 0.00 94 1022.0
20260902053227 55 178 0.0 0.9 0.00 0.00 0.00 94 1022.1
20260902053100 59 0 0.0 0.9 0.00 0.00 0.00 100 1022.6
20260902052803 55 200 0.0 0.9 0.00 0.00 0.00 94 1021.5
20260902052723 55 206 0.0 0.9 0.00 0.00 0.00 94 1022.0
20260902052712 55 178 0.0 0.9 0.00 0.00 0.00 94 1022.0
20260902052429 55 178 0.0 0.9 0.00 0.00 0.00 94 1021.9
20260902052306 55 170 0.0 0.9 0.00 0.00 0.00 94 1021.5
20260902051803 55 196 0.0 0.9 0.00 0.00 0.00 94 1021.5
20260902051546 59 221 0.0 0.9 0.00 0.00 0.00 100 1022.7
20260902051303 55 222 0.0 0.9 0.00 0.00 0.00 94 1021.5
20260902051227 55 223 0.0 0.9 0.00 0.00 0.00 94 1022.0
20260902050803 55 184 0.0 0.9 0.00 0.00 0.00 94 1021.5
20260902050724 55 45 0.0 0.9 0.00 0.00 0.00 94 1022.0
20260902050451 56 206 0.0 0.9 0.00 0.00 0.00 94 1021.9
20260902050304 55 227 0.0 0.9 0.00 0.00 0.00 94 1021.4
20260902050042 59 0 0.0 0.9 0.00 0.00 0.00 100 1022.5
20260902045803 56 241 0.0 0.9 0.00 0.00 0.00 94 1021.4
20260902045723 56 241 0.0 0.9 0.00 0.00 0.00 94 1021.9
20260902045306 56 154 0.0 0.9 0.00 0.00 0.00 94 1021.4
20260902045226 56 45 0.0 0.9 0.00 0.00 0.00 94 1021.8
20260902044803 56 186 0.0 0.9 0.00 0.00 0.00 94 1021.4
20260902044723 56 1 0.0 0.9 0.00 0.00 0.00 94 1021.8
20260902044543 59 0 0.0 0.0 0.00 0.00 0.00 100 1022.5
20260902044303 56 146 0.0 0.9 0.00 0.00 0.00 94 1021.4
20260902044226 56 178 0.0 0.9 0.00 0.00 0.00 94 1021.8
20260902043803 56 337 0.0 1.7 0.00 0.00 0.00 94 1021.4
20260902043722 56 45 0.0 0.9 0.00 0.00 0.00 94 1021.7
20260902043303 56 170 0.9 1.7 0.00 0.00 0.00 94 1021.3
20260902043225 56 197 0.9 0.9 0.00 0.00 0.00 94 1021.7
20260902043049 59 221 0.0 0.9 0.00 0.00 0.00 100 1022.3
20260902042803 56 138 0.0 0.9 0.00 0.00 0.00 94 1021.4
20260902042722 56 45 0.0 0.9 0.00 0.00 0.00 94 1021.8
20260902042308 56 354 0.0 0.9 0.00 0.00 0.00 94 1021.4
20260902042226 56 269 0.0 0.9 0.00 0.00 0.00 94 1021.8
20260902041804 56 278 0.0 0.9 0.00 0.00 0.00 94 1021.4
20260902041721 56 45 0.0 0.9 0.00 0.00 0.00 94 1021.8
20260902041546 59 0 0.0 0.9 0.00 0.00 0.00 100 1022.4
20260902041303 56 195 0.0 0.9 0.00 0.00 0.00 94 1021.4
20260902041225 56 206 0.0 0.9 0.00 0.00 0.00 94 1021.8
20260902040803 57 187 0.0 0.9 0.00 0.00 0.00 94 1021.3
20260902040722 57 178 0.0 0.9 0.00 0.00 0.00 94 1021.8
20260902040303 57 206 0.0 0.9 0.00 0.00 0.00 94 1021.3
20260902040226 57 178 0.0 1.7 0.00 0.00 0.00 94 1021.8
20260902040049 59 0 0.0 0.9 0.00 0.00 0.00 100 1022.4
20260902035803 57 186 0.0 0.9 0.00 0.00 0.00 94 1021.4
20260902035721 57 178 0.9 1.7 0.00 0.00 0.00 94 1021.8
20260902035231 57 145 0.9 0.9 0.00 0.00 0.00 94 1021.8
20260902034803 57 223 0.0 0.9 0.00 0.00 0.00 94 1021.4
20260902034721 57 223 0.0 1.7 0.00 0.00 0.00 94 1021.8
20260902034542 59 0 0.0 1.7 0.00 0.00 0.00 100 1022.4
20260902034303 57 185 0.0 0.9 0.00 0.00 0.00 94 1021.5
20260902034228 57 178 0.0 1.7 0.00 0.00 0.00 94 1021.9
20260902033803 57 166 0.9 1.7 0.00 0.00 0.00 94 1021.5
20260902033720 57 161 0.9 1.7 0.00 0.00 0.00 94 1021.9
20260902033303 57 163 0.9 0.9 0.00 0.00 0.00 93 1021.5
20260902033229 57 152 0.9 0.9 0.00 0.00 0.00 93 1021.9
20260902033044 59 0 0.0 0.9 0.00 0.00 0.00 100 1022.5
20260902032722 57 178 0.0 0.9 0.00 0.00 0.00 93 1022.0
20260902032306 57 272 0.0 0.9 0.00 0.00 0.00 93 1021.6
20260902032226 57 45 0.0 0.9 0.00 0.00 0.00 93 1022.0
20260902031803 57 119 0.0 0.9 0.00 0.00 0.00 93 1021.6
20260902031722 57 178 0.0 0.9 0.00 0.00 0.00 93 1022.1
20260902031547 59 0 0.0 0.9 0.00 0.00 0.00 100 1022.6
20260902031303 57 241 0.0 0.9 0.00 0.00 0.00 93 1021.6
20260902031223 57 178 0.0 0.9 0.00 0.00 0.00 93 1022.0
20260902030803 57 236 0.0 0.9 0.00 0.00 0.00 93 1021.7
20260902030721 57 206 0.0 0.9 0.00 0.00 0.00 93 1022.0
20260902030304 57 246 0.0 0.9 0.00 0.00 0.00 93 1021.7
20260902030226 57 45 0.0 0.9 0.00 0.00 0.00 93 1022.1
20260902030050 59 0 0.0 0.0 0.00 0.00 0.00 100 1022.6
20260902025803 57 152 0.0 0.9 0.00 0.00 0.00 93 1021.7
20260902025721 57 45 0.0 0.9 0.00 0.00 0.00 93 1022.0
20260902025306 58 146 0.0 0.9 0.00 0.00 0.00 93 1021.6
20260902025225 58 223 0.0 0.9 0.00 0.00 0.00 93 1021.9
20260902024803 58 43 0.0 0.9 0.00 0.00 0.00 93 1021.7
20260902024720 58 45 0.0 0.9 0.00 0.00 0.00 93 1022.0
20260902024543 59 0 0.0 0.9 0.00 0.00 0.00 100 1022.6
20260902024303 58 118 0.0 0.9 0.00 0.00 0.00 93 1021.7
20260902024223 58 314 0.0 0.9 0.00 0.00 0.00 93 1022.0
20260902023720 58 72 0.0 0.9 0.00 0.00 0.00 93 1022.1
20260902023303 58 145 0.0 0.9 0.00 0.00 0.00 93 1021.7
20260902023233 58 45 0.0 0.9 0.00 0.00 0.00 93 1022.1
20260902023103 59 0 0.0 0.9 0.00 0.00 0.00 100 1022.7
20260902022803 58 280 0.0 0.9 0.00 0.00 0.00 93 1021.6
20260902022720 58 1 0.0 0.9 0.00 0.00 0.00 93 1022.0
20260902022306 58 226 0.0 0.9 0.00 0.00 0.00 93 1021.8
20260902022222 58 223 0.0 0.9 0.00 0.00 0.00 93 1022.0
20260902021803 58 230 0.0 0.9 0.00 0.00 0.00 93 1021.8
20260902021720 58 213 0.0 0.9 0.00 0.00 0.00 93 1022.1
20260902021543 59 0 0.0 0.9 0.00 0.00 0.00 100 1022.7
20260902021303 59 212 0.9 0.9 0.00 0.00 0.00 93 1021.7
20260902021223 59 223 0.9 0.9 0.00 0.00 0.00 93 1022.0
20260902020719 59 206 0.0 0.9 0.00 0.00 0.00 93 1022.1
20260902020506 59 1 0.0 0.9 0.00 0.00 0.00 93 1022.0
20260902020303 59 188 0.9 0.9 0.00 0.00 0.00 93 1021.6
20260902020045 59 137 0.0 0.9 0.00 0.00 0.00 100 1022.6
20260902015957 59 178 0.0 0.9 0.00 0.00 0.00 93 1022.1
20260902015803 59 195 0.0 0.9 0.00 0.00 0.00 93 1021.6
20260902015305 59 260 0.0 0.9 0.00 0.00 0.00 93 1021.7
20260902015224 59 1 0.0 0.9 0.00 0.00 0.00 93 1022.1
20260902014803 59 40 0.0 0.9 0.00 0.00 0.00 93 1021.7
20260902014730 59 45 0.0 0.9 0.00 0.00 0.00 93 1022.1
20260902014722 59 45 0.0 0.9 0.00 0.00 0.00 93 1022.2
20260902014538 59 0 0.0 0.0 0.00 0.00 0.00 100 1022.7
20260902014303 59 104 0.0 0.9 0.00 0.00 0.00 93 1021.8
20260902013803 60 16 0.0 0.9 0.00 0.00 0.00 93 1021.8
20260902013719 60 314 0.0 0.9 0.00 0.00 0.00 93 1022.1
20260902013303 60 329 0.0 0.9 0.00 0.00 0.00 93 1021.8
20260902013222 60 269 0.0 0.9 0.00 0.00 0.00 93 1022.1
20260902013053 59 0 0.0 0.9 0.00 0.00 0.00 100 1022.7
20260902012803 60 225 0.0 0.9 0.00 0.00 0.00 93 1021.7
20260902012718 60 269 0.9 0.9 0.00 0.00 0.00 93 1022.1
20260902012308 60 243 0.0 0.9 0.00 0.00 0.00 93 1021.8
20260902012221 60 223 0.0 0.9 0.00 0.00 0.00 93 1022.2
20260902011803 60 180 0.0 0.9 0.00 0.00 0.00 93 1021.8
20260902011718 60 178 0.0 0.9 0.00 0.00 0.00 93 1022.2
20260902011544 60 0 0.0 0.9 0.00 0.00 0.00 100 1022.8
20260902011221 60 206 0.0 1.7 0.00 0.00 0.00 94 1022.1
20260902010803 60 171 0.9 1.7 0.00 0.00 0.00 93 1021.6
20260902010718 60 178 0.9 1.7 0.00 0.00 0.00 93 1021.9
20260902010303 60 157 0.9 1.7 0.00 0.00 0.00 93 1021.6
20260902010228 60 152 0.9 0.9 0.00 0.00 0.00 93 1022.1
20260902010038 60 221 0.0 0.9 0.00 0.00 0.00 100 1022.7
20260902005803 60 199 0.0 0.9 0.00 0.00 0.00 93 1021.7
20260902005718 60 117 0.0 0.9 0.00 0.00 0.00 93 1022.1
20260902005224 60 178 0.0 0.9 0.00 0.00 0.00 93 1022.1
20260902004803 60 171 0.0 0.9 0.00 0.00 0.00 93 1021.8
20260902004717 60 178 0.9 0.9 0.00 0.00 0.00 93 1022.2
20260902004550 68 0 0.0 0.9 0.00 0.00 0.00 100 1022.8
20260902004303 60 159 0.0 0.9 0.00 0.00 0.00 93 1021.8
20260902004223 60 135 0.9 0.9 0.00 0.00 0.00 92 1022.1
20260902003716 60 135 0.9 0.9 0.00 0.00 0.00 92 1022.2
20260902003303 60 185 0.0 0.9 0.00 0.00 0.00 92 1021.7
20260902003221 60 178 0.0 0.9 0.00 0.00 0.00 92 1022.1
20260902003048 68 0 0.0 0.9 0.00 0.00 0.00 100 1022.8
20260902002716 60 45 0.0 0.9 0.00 0.00 0.00 92 1022.2
20260902002306 60 124 0.0 0.9 0.00 0.00 0.00 92 1021.7
20260902002220 60 89 0.0 0.9 0.00 0.00 0.00 92 1022.2
20260902001803 61 348 0.0 0.9 0.00 0.00 0.00 92 1021.7
20260902001716 61 314 0.0 0.9 0.00 0.00 0.00 92 1022.1
20260902001559 68 0 0.0 0.9 0.00 0.00 0.00 100 1022.8
20260902001303 61 20 0.0 0.9 0.00 0.00 0.00 92 1021.6
20260902001220 61 269 0.0 0.9 0.00 0.00 0.00 92 1022.1
20260902000803 61 198 0.0 0.9 0.00 0.00 0.00 92 1021.7
20260902000717 61 269 0.0 0.9 0.00 0.00 0.00 92 1022.1
20260902000437 61 269 0.0 0.9 0.00 0.00 0.00 91 1022.1
20260902000421 61 89 0.0 0.9 0.00 0.00 0.00 91 1022.1
20260902000304 61 104 0.0 0.9 0.00 0.00 0.00 92 1021.7
20260902000045 68 9 0.0 0.9 0.00 0.00 0.00 100 1022.6
20260901235803 61 285 0.0 0.9 0.00 0.00 0.00 91 1021.6
20260901235307 61 211 0.0 0.9 0.00 0.00 0.00 91 1021.6
20260901235210 61 223 0.0 0.9 0.00 0.00 0.00 91 1022.1
20260901234803 61 51 0.0 0.9 0.00 0.00 0.00 91 1021.5
20260901234708 61 45 0.0 0.9 0.00 0.00 0.00 91 1022.1
20260901234541 68 0 0.0 0.9 0.00 0.00 0.00 100 1022.7
20260901234303 61 274 0.0 0.9 0.00 0.00 0.00 91 1021.6
20260901234208 61 45 0.0 0.9 0.00 0.00 0.00 91 1022.0
20260901233803 61 255 0.0 0.9 0.00 0.00 0.00 91 1021.6
20260901233705 62 331 0.0 0.9 0.00 0.00 0.00 91 1022.1
20260901233303 62 40 0.0 0.9 0.00 0.00 0.00 91 1021.5
20260901233202 62 45 0.0 0.9 0.00 0.00 0.00 92 1022.0
20260901233045 68 0 0.0 0.9 0.00 0.00 0.00 100 1022.6
20260901232803 62 355 0.0 0.9 0.00 0.00 0.00 92 1021.5
20260901232703 62 269 0.0 0.9 0.00 0.00 0.00 91 1021.8
20260901232205 62 223 0.0 0.9 0.00 0.00 0.00 92 1021.9
20260901231803 62 164 0.9 1.7 0.00 0.00 0.00 91 1021.4
20260901231702 62 152 0.9 1.7 0.00 0.00 0.00 91 1021.8
20260901231545 68 153 0.0 0.9 0.00 0.00 0.00 100 1022.5
20260901231303 62 158 0.9 1.7 0.00 0.00 0.00 91 1021.4
20260901231202 62 145 0.9 1.7 0.00 0.00 0.00 91 1021.9
20260901230803 62 169 0.0 0.9 0.00 0.00 0.00 91 1021.4
20260901230702 62 178 0.0 0.9 0.00 0.00 0.00 91 1021.8
20260901230304 62 207 0.0 0.9 0.00 0.00 0.00 91 1021.4
20260901230202 62 178 0.0 1.7 0.00 0.00 0.00 91 1022.0
20260901230041 68 0 0.0 0.9 0.00 0.00 0.00 100 1022.5
20260901225803 62 253 0.9 1.7 0.00 0.00 0.00 91 1021.4
20260901225703 62 223 0.9 1.7 0.00 0.00 0.00 91 1021.9
20260901225202 62 45 0.9 0.9 0.00 0.00 0.00 91 1022.0
20260901224803 63 172 0.9 0.9 0.00 0.00 0.00 91 1021.5
20260901224703 63 178 0.0 0.9 0.00 0.00 0.00 91 1022.0
20260901224550 68 0 0.0 0.9 0.00 0.00 0.00 100 1022.6
20260901224303 63 220 0.0 0.9 0.00 0.00 0.00 91 1021.5
20260901224202 63 269 0.0 1.7 0.00 0.00 0.00 91 1021.9
20260901223803 63 172 0.9 1.7 0.00 0.00 0.00 91 1021.4
20260901223702 63 178 0.9 1.7 0.00 0.00 0.00 91 1022.0
20260901223303 63 185 0.0 0.9 0.00 0.00 0.00 90 1021.5
20260901223202 63 152 0.9 0.9 0.00 0.00 0.00 90 1022.0
20260901223049 68 178 0.0 0.9 0.00 0.00 0.00 100 1022.6
20260901222926 63 223 0.9 0.9 0.00 0.00 0.00 90 1022.0
20260901222803 63 186 0.9 0.9 0.00 0.00 0.00 90 1021.6
20260901222306 63 218 0.0 0.9 0.00 0.00 0.00 90 1021.6
20260901222202 63 178 0.0 1.7 0.00 0.00 0.00 90 1022.1
20260901221803 63 75 0.0 0.9 0.00 0.00 0.00 90 1021.6
20260901221702 63 45 0.9 1.7 0.00 0.00 0.00 90 1022.1
20260901221556 68 0 0.0 1.7 0.00 0.00 0.00 100 1022.7
20260901221303 63 178 0.9 1.7 0.00 0.00 0.00 90 1021.6
20260901221203 63 178 0.9 1.7 0.00 0.00 0.00 91 1022.1